[[{"header":{"parameterUnit":"m.s-1","parameterCategory":2,"la1":30.2991,"la2":30.254,"lo1":-89.0895,"lo2":-89.0444,"dy":0.0017,"dx":0.0017,"nx":28,"ny":28,"refTime":"2024-04-25T09:00:00:Z","depth":"0","parameterNumber":2,"parameterNumberName":"U-component_of_CURRENTS"},"data":[0,0,0,0,0,0,0,0,0,0,0,0,0,0,0,0,0,0,0,0,0,0,0,0,0,0,0,0,0,0,0,0,0,0,0,0,0,0,0,0,0,0,0,0,0,0,0,0,0,0,0,0,0,0,0,0,0,0,0.2124,0.2124,0,0.2109,0.2108,0.2108,0.209,0.209,0.209,0.209,0.2093,0.2093,0.2093,0,0,0,0,0,0,0,0,0,0,0,0,0,0.2147,0.2146,0.2124,0.2124,0.2125,0.2109,0.2108,0.2108,0.209,0.209,0.209,0.209,0.2093,0.2093,0.2093,0,0,0,0,0,0,0,0,0,0,0,0,0,0.2132,0.2146,0.2124,0.2115,0.2115,0.2109,0.2108,0.2108,0.209,0.209,0.209,0.209,0.2092,0.2093,0.2093,0.2096,0,0,0.2093,0.2094,0,0,0,0,0,0,0,0,0.2133,0.2131,0.2117,0.2116,0.2115,0.2103,0.2117,0.2105,0.209,0.2097,0.209,0.209,0.2099,0.2099,0.2093,0.2096,0.2096,0.2093,0.2094,0.2094,0.2094,0,0,0,0,0,0,0,0.2134,0.2132,0.2116,0.2117,0.2116,0.2115,0.2112,0.2115,0.2097,0.2096,0.2096,0.2097,0.2099,0.2093,0.2093,0.2096,0.2093,0.2094,0.2094,0.2094,0.2165,0.2166,0,0,0,0,0,0,0.214,0.2133,0.2116,0.2116,0.2127,0.2115,0.2112,0.2105,0.2097,0.2096,0.2098,0.2097,0.2092,0.2093,0.2093,0.2145,0.2094,0.2094,0.2094,0.2163,0.2165,0.2167,0,0,0,0,0,0,0.2141,0.2139,0.2117,0.2126,0.2124,0.2114,0.2107,0.2105,0.2103,0.2098,0.2097,0.2099,0.2092,0.2093,0.2104,0.2143,0.2094,0.2094,0.2161,0.2164,0.2166,0.2218,0,0,0,0,0,0,0.2141,0.2139,0.2138,0.2126,0.2123,0.212,0.2108,0.2105,0.2105,0.2104,0.2099,0.2099,0.2092,0.2104,0.2104,0.2142,0.2094,0.2159,0.2162,0.2165,0.2214,0.2222,0.2229,0,0,0,0,0,0.2142,0.2145,0.2138,0.2136,0.2122,0.212,0.2119,0.211,0.2106,0.2107,0.2107,0.2099,0.2126,0.2105,0.2105,0.2144,0.2157,0.2161,0.2165,0.2211,0.222,0.2229,0,0,0,0,0,0,0.2156,0.2144,0.2135,0.2135,0.213,0.2118,0.2121,0.2115,0.2114,0.2116,0.2108,0.2108,0.2137,0.2133,0.2109,0.2177,0.2146,0.215,0.2181,0.219,0.2197,0.2252,0.2094,0,0,0,0,0,0.2159,0.2154,0.2145,0.2144,0.2143,0.2132,0.2131,0.2126,0.2124,0.2123,0.2121,0.2132,0.2153,0.2163,0.2172,0.22,0.2229,0.2231,0.2238,0.2244,0.2292,0.2348,0.2365,0.218,0.218,0.218,0,0,0.2163,0.2157,0.2154,0.2146,0.2141,0.2149,0.2131,0.2133,0.2153,0.2125,0.2149,0.2151,0.2165,0.22,0.2215,0.2201,0.2311,0.225,0.2255,0.2299,0.2354,0.2372,0.2389,0.2183,0.2182,0.2182,0,0,0.2169,0.2165,0.2162,0.2164,0.2162,0.2163,0.2167,0.2161,0.2172,0.2187,0.2188,0.2227,0.2226,0.2269,0.2287,0.2346,0.2344,0.2333,0.242,0.2473,0.2489,0.2503,0.2556,0.2574,0.2341,0.2341,0.2341,0,0.2176,0.217,0.2163,0.2167,0.218,0.2173,0.2187,0.2201,0.2202,0.2233,0.2204,0.2272,0.2278,0.2366,0.2392,0.2369,0.2387,0.2378,0.2484,0.2499,0.2513,0.2563,0.2583,0.2344,0.2344,0.2344,0.2343,0,0.2176,0.2181,0.2185,0.2191,0.2206,0.2216,0.2239,0.2262,0.2272,0.2294,0.2366,0.2381,0.2434,0.2439,0.2435,0.2547,0.2522,0.2479,0.246,0.2535,0.2582,0.2602,0.2349,0.2347,0.2347,0.2346,0,0,0.2163,0.218,0.2181,0.2196,0.2222,0.2234,0.229,0.2343,0.2392,0.2417,0.2492,0.2557,0.2576,0.2603,0.2606,0.2666,0.2774,0.2622,0.2623,0.2675,0.289,0.2784,0.2795,0.273,0.2734,0.2737,0.2879,0,0.2164,0.2183,0.2196,0.223,0.2249,0.2284,0.2337,0.2394,0.2438,0.2506,0.2578,0.2636,0.2634,0.2657,0.2728,0.2755,0.2831,0.2741,0.2812,0.2816,0.2712,0.2817,0.2632,0.2735,0.2899,0.2902,0.2905,0,0.2158,0.2175,0.2207,0.2264,0.2275,0.2301,0.2397,0.2442,0.2554,0.2593,0.2691,0.2725,0.2858,0.281,0.2963,0.2894,0.2925,0.2943,0.2947,0.2856,0.2748,0.269,0.2765,0.2696,0.2936,0.2933,0.2931,0,0.2154,0.2188,0.2217,0.2233,0.2293,0.2329,0.237,0.2472,0.254,0.2655,0.2717,0.2845,0.2919,0.2989,0.3061,0.3006,0.3203,0.3117,0.3068,0.306,0.2928,0.2901,0.2951,0.3247,0.3247,0.3246,0.3246,0,0.2158,0.2183,0.2214,0.2228,0.2285,0.2326,0.2412,0.2469,0.2581,0.2681,0.2764,0.287,0.2966,0.3081,0.3114,0.3175,0.3256,0.3134,0.3107,0.2937,0.291,0.2861,0.2798,0.3252,0.325,0.3249,0.3249,0,0.2163,0.2176,0.2213,0.2263,0.2282,0.2325,0.243,0.2504,0.2593,0.2725,0.277,0.2928,0.3054,0.3149,0.327,0.324,0.3174,0.3299,0.3097,0.3042,0.2848,0.2792,0.2688,0.2604,0.3242,0.324,0.3239,0,0.2171,0.2188,0.2231,0.2264,0.2287,0.2357,0.2422,0.2508,0.2586,0.2765,0.2831,0.2991,0.3091,0.3234,0.3201,0.3239,0.3157,0.3092,0.2954,0.2862,0.2782,0.2626,0.2553,0.2807,0.2802,0.2798,0.2795,0,0.2211,0.222,0.2255,0.2307,0.236,0.2413,0.2492,0.2546,0.266,0.2743,0.2863,0.2946,0.3059,0.3003,0.3044,0.3037,0.2864,0.3008,0.2975,0.2517,0.2294,0.2188,0.27,0.2761,0.2764,0.2767,0.2769,0.277,0.2254,0.2288,0.2332,0.2372,0.2417,0.2445,0.2462,0.2538,0.2607,0.2674,0.2803,0.2842,0.2838,0.2828,0.2813,0.2625,0.2612,0.2509,0.2477,0.2353,0.2176,0.2614,0.2589,0.2591,0.2593,0.2595,0.2596,0,0.233,0.2362,0.2405,0.2425,0.2432,0.2454,0.2497,0.248,0.2493,0.2562,0.2602,0.2557,0.248,0.246,0.2267,0.213,0.1999,0.2071,0.1841,0.182,0.2281,0.2167,0.1972,0.1972,0.1972,0.1973,0.1973,0.1973,0.2387,0.2442,0.2437,0.2431,0.2424,0.2384,0.2374,0.2336,0.2339,0.226,0.2199,0.2209,0.2194,0.2023,0.1851,0.1787,0.1625,0.1459,0.1529,0.1883,0.1923,0.196,0.1844,0.1584,0.1584,0.0958,0.0953,0.0949]},{"header":{"parameterUnit":"m.s-1","parameterCategory":2,"la1":30.2991,"la2":30.254,"lo1":-89.0895,"lo2":-89.0444,"dy":0.0017,"dx":0.0017,"nx":28,"ny":28,"refTime":"2024-04-25T09:00:00:Z","depth":"0","parameterNumber":3,"parameterNumberName":"V-component_of_CURRENTS"},"data":[0,0,0,0,0,0,0,0,0,0,0,0,0,0,0,0,0,0,0,0,0,0,0,0,0,0,0,0,0,0,0,0,0,0,0,0,0,0,0,0,0,0,0,0,0,0,0,0,0,0,0,0,0,0,0,0,0,0,0.0129,0.0129,0,0.0109,0.0108,0.0108,0.0096,0.0095,0.0095,0.0095,0.0063,0.0062,0.0062,0,0,0,0,0,0,0,0,0,0,0,0,0,0.0146,0.0146,0.0129,0.0129,0.0128,0.0109,0.0108,0.0108,0.0096,0.0095,0.0095,0.0095,0.0063,0.0063,0.0062,0,0,0,0,0,0,0,0,0,0,0,0,0,0.0134,0.0146,0.0129,0.012,0.0119,0.0109,0.0108,0.0108,0.0096,0.0095,0.0095,0.0095,0.0064,0.0063,0.0062,0.0057,0,0,0.0058,0.0057,0,0,0,0,0,0,0,0,0.0134,0.0133,0.0121,0.012,0.0119,0.0104,0.0103,0.009,0.0096,0.0104,0.0095,0.0095,0.0076,0.0074,0.0071,0.0055,0.0054,0.0058,0.0057,0.0057,0.0056,0,0,0,0,0,0,0,0.0135,0.0134,0.0121,0.0121,0.012,0.0113,0.0111,0.01,0.0091,0.0104,0.0103,0.01,0.0075,0.0072,0.007,0.0054,0.0058,0.0057,0.0056,0.0056,0.0052,0.0052,0,0,0,0,0,0,0.0138,0.0135,0.0122,0.012,0.0126,0.0113,0.0111,0.0109,0.0091,0.0089,0.01,0.01,0.0074,0.0071,0.0069,0.0082,0.0057,0.0056,0.0055,0.0051,0.0052,0.0052,0,0,0,0,0,0,0.0139,0.0137,0.0123,0.0127,0.0124,0.0112,0.0111,0.0109,0.0107,0.0089,0.0086,0.0101,0.0074,0.007,0.0069,0.008,0.0055,0.0054,0.005,0.0051,0.0052,0.0097,0,0,0,0,0,0,0.0139,0.0138,0.0138,0.0127,0.0124,0.0122,0.0111,0.0109,0.0106,0.0105,0.0088,0.0085,0.0073,0.0071,0.0068,0.0078,0.0053,0.005,0.0051,0.0052,0.0095,0.0099,0.0103,0,0,0,0,0,0.014,0.0142,0.0138,0.0136,0.0125,0.0123,0.0121,0.0112,0.0106,0.0109,0.0101,0.0086,0.0075,0.007,0.0066,0.0077,0.0049,0.005,0.0052,0.0093,0.0099,0.0103,0,0,0,0,0,0,0.0149,0.0141,0.0136,0.0135,0.0132,0.0121,0.0121,0.0115,0.011,0.011,0.0092,0.0089,0.0093,0.0078,0.0073,0.0079,0.006,0.006,0.0093,0.0098,0.0102,0.0136,0.0052,0,0,0,0,0,0.0151,0.0153,0.0143,0.0144,0.0142,0.0132,0.013,0.0125,0.0119,0.0117,0.0107,0.0098,0.0095,0.0091,0.0084,0.0086,0.0087,0.0091,0.0095,0.0099,0.0124,0.0132,0.0139,0.0057,0.0057,0.0057,0,0,0.0155,0.0151,0.0151,0.0146,0.0142,0.0149,0.0131,0.0131,0.0142,0.0114,0.0125,0.0112,0.0099,0.0105,0.0105,0.0094,0.012,0.01,0.0104,0.0127,0.0134,0.0142,0.0149,0.0058,0.0057,0.0057,0,0,0.0167,0.016,0.0167,0.0167,0.0164,0.0161,0.0163,0.0155,0.0158,0.0163,0.015,0.0151,0.0136,0.0139,0.0136,0.016,0.0143,0.0147,0.0196,0.0203,0.021,0.0217,0.022,0.0227,0.0149,0.0149,0.0149,0,0.0172,0.0182,0.0169,0.0178,0.0188,0.0169,0.0188,0.0186,0.0181,0.0198,0.0174,0.0186,0.016,0.0191,0.0192,0.0171,0.0171,0.0177,0.021,0.0216,0.0222,0.0224,0.0231,0.0151,0.0151,0.0151,0.0151,0,0.0191,0.0202,0.0207,0.0217,0.0225,0.0236,0.0236,0.0249,0.0246,0.0247,0.0275,0.0251,0.0266,0.0246,0.0222,0.0255,0.0239,0.0214,0.0199,0.0233,0.0233,0.0239,0.0155,0.0154,0.0153,0.0153,0,0,0.0201,0.0218,0.0222,0.0248,0.0251,0.0268,0.0291,0.0319,0.036,0.0343,0.0402,0.0371,0.0366,0.0364,0.0338,0.0334,0.0351,0.0292,0.0291,0.0301,0.0368,0.0362,0.0368,0.0328,0.033,0.0331,0.0348,0,0.0224,0.0262,0.0262,0.0311,0.0336,0.0342,0.0374,0.0398,0.0413,0.0462,0.0449,0.0482,0.0409,0.0427,0.0411,0.0377,0.0371,0.0349,0.033,0.033,0.0325,0.0376,0.037,0.0387,0.0354,0.0355,0.0356,0,0.0247,0.0275,0.0324,0.0385,0.0398,0.0424,0.0501,0.053,0.0579,0.0596,0.0624,0.0614,0.0624,0.0554,0.0519,0.0508,0.0447,0.0407,0.0406,0.0397,0.0337,0.0349,0.0399,0.0359,0.0365,0.0364,0.0364,0,0.0279,0.0326,0.0375,0.0391,0.0445,0.0484,0.052,0.0572,0.0638,0.0696,0.0758,0.0745,0.0781,0.0699,0.0609,0.0565,0.0575,0.05,0.0441,0.0439,0.0432,0.0428,0.0452,0.0481,0.0481,0.0481,0.0481,0,0.0311,0.0356,0.0398,0.0428,0.0515,0.0533,0.064,0.0674,0.0763,0.0876,0.0838,0.0936,0.082,0.0809,0.0679,0.0602,0.0628,0.0478,0.0456,0.0446,0.0443,0.0405,0.036,0.0482,0.0482,0.0482,0.0482,0,0.0346,0.0363,0.0435,0.0502,0.0532,0.0601,0.0728,0.0822,0.0875,0.1031,0.1064,0.1103,0.1091,0.0969,0.0867,0.0724,0.0582,0.0584,0.0582,0.056,0.0434,0.0391,0.038,0.0313,0.0512,0.0512,0.0512,0,0.0373,0.041,0.0496,0.0563,0.0599,0.0705,0.08,0.0876,0.0989,0.1151,0.1246,0.1286,0.1338,0.1185,0.0949,0.0746,0.0646,0.0598,0.0503,0.0461,0.0396,0.0352,0.0292,0.0503,0.0503,0.0503,0.0503,0,0.0449,0.0471,0.0532,0.0658,0.0762,0.0881,0.1012,0.1108,0.1234,0.1357,0.1518,0.1568,0.1451,0.1272,0.0999,0.0832,0.0549,0.0591,0.0553,0.0414,0.0364,0.0277,0.0454,0.0503,0.0503,0.0503,0.0503,0.0503,0.0518,0.0582,0.067,0.0781,0.0899,0.1039,0.1134,0.1276,0.1444,0.1607,0.1696,0.1778,0.1549,0.1178,0.0974,0.0605,0.0562,0.0468,0.0427,0.0392,0.0317,0.0502,0.0519,0.0519,0.0519,0.0519,0.0519,0,0.0626,0.0697,0.0806,0.0934,0.1049,0.1097,0.1275,0.1362,0.1529,0.1692,0.1817,0.1783,0.1524,0.1205,0.0726,0.0488,0.0345,0.0372,0.0312,0.0256,0.0438,0.0429,0.0421,0.0421,0.0421,0.0422,0.0422,0.0422,0.0699,0.0817,0.0853,0.1036,0.1123,0.1258,0.134,0.1459,0.1575,0.1715,0.1763,0.1805,0.1648,0.1003,0.0569,0.0428,0.0255,0.0205,0.0126,0.0266,0.0272,0.0278,0.0261,0.0219,0.0219,-0.0058,-0.006,-0.0062]}],[{"header":{"parameterUnit":"m.s-1","parameterCategory":2,"la1":30.2991,"la2":30.254,"lo1":-89.0895,"lo2":-89.0444,"dy":0.0017,"dx":0.0017,"nx":28,"ny":28,"refTime":"2024-04-25T09:00:00:Z","depth":"2","parameterNumber":2,"parameterNumberName":"U-component_of_CURRENTS"},"data":[0,0,0,0,0,0,0,0,0,0,0,0,0,0,0,0,0,0,0,0,0,0,0,0,0,0,0,0,0,0,0,0,0,0,0,0,0,0,0,0,0,0,0,0,0,0,0,0,0,0,0,0,0,0,0,0,0,0,0.2146,0.2146,0,0.2129,0.2129,0.2128,0.2112,0.2112,0.2112,0.2112,0.2121,0.2121,0.2121,0,0,0,0,0,0,0,0,0,0,0,0,0,0.2165,0.2164,0.2146,0.2146,0.2146,0.2129,0.2128,0.2128,0.2112,0.2112,0.2112,0.2112,0.2121,0.2121,0.2121,0,0,0,0,0,0,0,0,0,0,0,0,0,0.2151,0.2164,0.2146,0.2138,0.2137,0.2129,0.2128,0.2128,0.2112,0.2112,0.2112,0.2112,0.2121,0.2121,0.2121,0.2122,0,0,0.2122,0.2122,0,0,0,0,0,0,0,0,0.2152,0.215,0.2139,0.2138,0.2137,0.2125,0.2139,0.2128,0.2112,0.2119,0.2112,0.2112,0.2126,0.2126,0.2119,0.2123,0.2123,0.2122,0.2122,0.2122,0.2123,0,0,0,0,0,0,0,0.2153,0.215,0.2136,0.2139,0.2138,0.2135,0.2133,0.2136,0.2121,0.2118,0.2118,0.212,0.2126,0.2118,0.2119,0.2123,0.2122,0.2122,0.2123,0.2123,0.2193,0.2195,0,0,0,0,0,0,0.216,0.2151,0.2137,0.2136,0.2148,0.2135,0.2133,0.2127,0.212,0.212,0.212,0.2119,0.2118,0.2119,0.2119,0.2172,0.2122,0.2123,0.2123,0.2191,0.2193,0.2195,0,0,0,0,0,0,0.216,0.2158,0.2138,0.2146,0.2143,0.2135,0.2128,0.2126,0.2124,0.2122,0.2121,0.212,0.2118,0.2119,0.2131,0.2171,0.2123,0.2123,0.2189,0.2192,0.2194,0.2245,0,0,0,0,0,0,0.216,0.2158,0.2158,0.2146,0.2143,0.2138,0.2129,0.2126,0.2126,0.2125,0.2122,0.2122,0.2118,0.213,0.2131,0.217,0.2123,0.2187,0.219,0.2193,0.2242,0.2249,0.2256,0,0,0,0,0,0.2161,0.2165,0.2158,0.2157,0.2143,0.2138,0.2136,0.2129,0.2126,0.2126,0.2128,0.2123,0.2152,0.2131,0.2132,0.2172,0.2186,0.219,0.2193,0.2238,0.2248,0.2256,0,0,0,0,0,0,0.2175,0.2164,0.2156,0.2156,0.2149,0.2137,0.2139,0.2133,0.2132,0.2134,0.213,0.2131,0.216,0.2157,0.2135,0.2204,0.2174,0.2178,0.2208,0.2217,0.2224,0.2283,0.2124,0,0,0,0,0,0.2178,0.2174,0.2164,0.2163,0.2161,0.2149,0.2148,0.2143,0.2141,0.214,0.2141,0.2153,0.2176,0.2187,0.2197,0.2225,0.2252,0.2257,0.2264,0.227,0.232,0.2371,0.2388,0.2208,0.2208,0.2207,0,0,0.2182,0.2177,0.2174,0.2166,0.2158,0.2165,0.2148,0.2148,0.2168,0.2143,0.2169,0.2172,0.2187,0.2223,0.2238,0.2226,0.2334,0.2275,0.228,0.2328,0.2377,0.2395,0.241,0.221,0.221,0.2209,0,0,0.2187,0.2184,0.218,0.2181,0.2176,0.2178,0.2181,0.2174,0.2185,0.2202,0.2205,0.2244,0.2246,0.2291,0.2309,0.2366,0.2365,0.2355,0.2445,0.2491,0.2507,0.2521,0.2568,0.2586,0.2364,0.2364,0.2364,0,0.2193,0.2187,0.2179,0.2182,0.2195,0.2188,0.22,0.2213,0.2215,0.2249,0.2219,0.2294,0.2297,0.2389,0.2413,0.2389,0.2405,0.2404,0.2502,0.2517,0.2531,0.2575,0.2594,0.2367,0.2366,0.2366,0.2366,0,0.2189,0.2196,0.2199,0.2204,0.2218,0.2227,0.2249,0.227,0.2282,0.231,0.2387,0.24,0.2457,0.2461,0.2456,0.2566,0.2542,0.2497,0.248,0.2552,0.2594,0.2613,0.2371,0.237,0.2369,0.2368,0,0,0.2174,0.2192,0.2193,0.2209,0.2235,0.2245,0.2298,0.2353,0.2404,0.2434,0.2513,0.258,0.2604,0.2631,0.2633,0.2689,0.2788,0.2643,0.2644,0.2691,0.2893,0.2735,0.274,0.2742,0.2746,0.2749,0.2878,0,0.2172,0.219,0.2204,0.224,0.2259,0.2292,0.2345,0.2404,0.2452,0.2524,0.2599,0.2663,0.2663,0.2686,0.2753,0.2772,0.2843,0.2759,0.2817,0.2821,0.2672,0.2759,0.2513,0.2595,0.2897,0.29,0.2902,0,0.2164,0.218,0.2214,0.2274,0.2286,0.2313,0.2409,0.2454,0.2571,0.2612,0.2719,0.2758,0.2889,0.2838,0.2982,0.2918,0.2939,0.295,0.2953,0.2814,0.2699,0.2575,0.2618,0.2934,0.2932,0.293,0.2927,0,0.216,0.2195,0.2228,0.2245,0.2307,0.2341,0.2382,0.2489,0.2557,0.2678,0.2743,0.2877,0.2948,0.3011,0.3064,0.3021,0.3188,0.3114,0.3012,0.3,0.2814,0.2778,0.3235,0.3235,0.3234,0.3234,0.3234,0,0.2165,0.2191,0.2226,0.2242,0.23,0.2343,0.2434,0.2487,0.2601,0.2706,0.2796,0.2902,0.2993,0.3092,0.3114,0.3133,0.3236,0.3073,0.3036,0.2819,0.2784,0.3092,0.3074,0.3239,0.3238,0.3237,0.3236,0,0.2169,0.2187,0.2227,0.2279,0.2299,0.2344,0.245,0.2528,0.2618,0.2751,0.2797,0.2956,0.3052,0.3127,0.3227,0.3184,0.3211,0.3193,0.2933,0.2861,0.2983,0.2966,0.3091,0.3086,0.3083,0.308,0.3077,0,0.2174,0.2197,0.2245,0.2283,0.2308,0.2381,0.2447,0.2532,0.2613,0.2789,0.2854,0.2988,0.3052,0.3135,0.3082,0.3075,0.3168,0.2837,0.2706,0.3024,0.2976,0.2964,0.2952,0.2492,0.2485,0.2479,0.2474,0,0.2208,0.2225,0.2261,0.2328,0.2386,0.2444,0.2525,0.2574,0.2689,0.2746,0.2851,0.29,0.2967,0.2823,0.2791,0.2761,0.2802,0.2712,0.3152,0.2534,0.246,0.2411,0.242,0.2422,0.2428,0.2431,0.2434,0.2436,0.224,0.2273,0.233,0.2384,0.2451,0.2486,0.2506,0.2564,0.2606,0.2612,0.2728,0.2656,0.2646,0.2429,0.2355,0.2296,0.249,0.2366,0.2385,0.241,0.2285,0.2205,0.2099,0.2102,0.2105,0.2107,0.2109,0,0.2263,0.2317,0.2391,0.2436,0.2479,0.2515,0.2552,0.2518,0.2485,0.2423,0.2391,0.2086,0.197,0.1985,0.1805,0.1773,0.1772,0.1697,0.1684,0.1737,0.1784,0.1628,0.1267,0.1264,0.1262,0.1259,0,0,0.2296,0.234,0.2362,0.2434,0.2476,0.2481,0.2468,0.238,0.2289,0.2,0.1832,0.1872,0.1916,0.155,0.1495,0.1361,0.1541,0.13,0.1981,0.2021,0.2065,0.2179,0.1998,0,0,0,0,0]},{"header":{"parameterUnit":"m.s-1","parameterCategory":2,"la1":30.2991,"la2":30.254,"lo1":-89.0895,"lo2":-89.0444,"dy":0.0017,"dx":0.0017,"nx":28,"ny":28,"refTime":"2024-04-25T09:00:00:Z","depth":"2","parameterNumber":3,"parameterNumberName":"V-component_of_CURRENTS"},"data":[0,0,0,0,0,0,0,0,0,0,0,0,0,0,0,0,0,0,0,0,0,0,0,0,0,0,0,0,0,0,0,0,0,0,0,0,0,0,0,0,0,0,0,0,0,0,0,0,0,0,0,0,0,0,0,0,0,0,0.0091,0.0091,0,0.0069,0.0069,0.0068,0.0057,0.0057,0.0057,0.0057,0.0028,0.0027,0.0026,0,0,0,0,0,0,0,0,0,0,0,0,0,0.0107,0.0107,0.0091,0.0091,0.009,0.0069,0.0069,0.0068,0.0057,0.0057,0.0057,0.0057,0.0028,0.0027,0.0026,0,0,0,0,0,0,0,0,0,0,0,0,0,0.0094,0.0107,0.0091,0.0082,0.0081,0.0069,0.0069,0.0068,0.0057,0.0057,0.0057,0.0057,0.0028,0.0027,0.0026,0.002,0,0,0.0023,0.0022,0,0,0,0,0,0,0,0,0.0095,0.0093,0.0084,0.0083,0.0081,0.0066,0.0064,0.0052,0.0057,0.0066,0.0057,0.0056,0.004,0.0038,0.0034,0.0018,0.0017,0.0023,0.0022,0.0022,0.0021,0,0,0,0,0,0,0,0.0096,0.0094,0.0082,0.0083,0.0082,0.0074,0.0072,0.0062,0.0053,0.0065,0.0064,0.0062,0.0039,0.0035,0.0033,0.0017,0.0023,0.0022,0.0021,0.0021,0.0015,0.0016,0,0,0,0,0,0,0.01,0.0095,0.0083,0.0081,0.0088,0.0074,0.0072,0.0071,0.0053,0.0051,0.0062,0.0061,0.0037,0.0034,0.0032,0.0046,0.0022,0.002,0.002,0.0015,0.0015,0.0016,0,0,0,0,0,0,0.01,0.0099,0.0084,0.0088,0.0085,0.0074,0.0072,0.007,0.0068,0.0051,0.0048,0.0062,0.0037,0.0033,0.0032,0.0044,0.002,0.0019,0.0014,0.0015,0.0015,0.006,0,0,0,0,0,0,0.0101,0.0099,0.0099,0.0088,0.0085,0.0081,0.0072,0.007,0.0066,0.0066,0.005,0.0047,0.0036,0.0034,0.0031,0.0042,0.0018,0.0013,0.0014,0.0015,0.0058,0.0063,0.0066,0,0,0,0,0,0.0101,0.0104,0.01,0.0098,0.0086,0.0082,0.008,0.0071,0.0067,0.0068,0.0062,0.0048,0.0038,0.0033,0.003,0.0041,0.0013,0.0014,0.0015,0.0056,0.0062,0.0066,0,0,0,0,0,0,0.0111,0.0103,0.0098,0.0098,0.0092,0.008,0.0079,0.0073,0.0069,0.0069,0.0054,0.0051,0.0055,0.0041,0.0036,0.0042,0.0023,0.0024,0.0056,0.0061,0.0065,0.0098,0.0017,0,0,0,0,0,0.0113,0.0114,0.0104,0.0105,0.0102,0.0091,0.0088,0.0083,0.0077,0.0074,0.0066,0.0058,0.0056,0.0053,0.0046,0.0048,0.0046,0.0053,0.0057,0.006,0.0085,0.0089,0.0096,0.002,0.002,0.002,0,0,0.0117,0.0113,0.0113,0.0107,0.0101,0.0107,0.0089,0.0087,0.0099,0.0072,0.0084,0.0072,0.006,0.0065,0.0066,0.0056,0.0078,0.0062,0.0065,0.0089,0.0091,0.0099,0.0105,0.002,0.002,0.002,0,0,0.0127,0.0121,0.0126,0.0126,0.0121,0.0118,0.0119,0.0111,0.0113,0.0119,0.0107,0.0108,0.0096,0.0098,0.0095,0.0117,0.01,0.0107,0.0155,0.0158,0.0164,0.017,0.0168,0.0173,0.0109,0.0109,0.0109,0,0.0132,0.014,0.0127,0.0135,0.0145,0.0127,0.0143,0.014,0.0135,0.0151,0.0129,0.0143,0.0117,0.0148,0.0149,0.0129,0.0126,0.0136,0.0164,0.017,0.0176,0.0172,0.0177,0.0111,0.0111,0.0111,0.011,0,0.0147,0.0158,0.0162,0.0172,0.0179,0.0189,0.0188,0.0191,0.019,0.0201,0.0227,0.0204,0.022,0.0201,0.0178,0.0209,0.0193,0.0169,0.0155,0.0186,0.0179,0.0184,0.0114,0.0114,0.0113,0.0112,0,0,0.0154,0.0171,0.0175,0.02,0.0204,0.0219,0.0231,0.0257,0.0297,0.0282,0.0339,0.0314,0.0317,0.0316,0.029,0.0284,0.0296,0.0244,0.0243,0.0248,0.0303,0.0213,0.0209,0.0275,0.0277,0.0278,0.028,0,0.0174,0.021,0.021,0.0258,0.0282,0.0279,0.0308,0.0329,0.0347,0.0395,0.0382,0.0426,0.0358,0.0378,0.0359,0.0324,0.0313,0.0298,0.0268,0.0268,0.0188,0.0214,0.0261,0.026,0.0284,0.0285,0.0286,0,0.0194,0.022,0.0268,0.0327,0.034,0.0367,0.043,0.0458,0.0505,0.0524,0.0555,0.0556,0.0564,0.0497,0.0456,0.045,0.0386,0.0342,0.0341,0.0252,0.0187,0.0234,0.0268,0.0293,0.0293,0.0292,0.0292,0,0.0225,0.0269,0.0319,0.0335,0.0387,0.0416,0.0451,0.0503,0.0564,0.0625,0.0686,0.0681,0.0716,0.0631,0.0528,0.05,0.0477,0.0424,0.0286,0.0278,0.0312,0.0305,0.0397,0.0397,0.0397,0.0397,0.0397,0,0.0257,0.0299,0.0342,0.0371,0.0455,0.0474,0.0581,0.0604,0.0689,0.0802,0.0774,0.0857,0.0753,0.0722,0.0589,0.0457,0.0522,0.031,0.0278,0.0324,0.0318,0.0342,0.0336,0.0397,0.0397,0.0397,0.0397,0,0.0289,0.031,0.0379,0.0443,0.0473,0.054,0.0664,0.0753,0.0809,0.0952,0.0984,0.1014,0.0948,0.0813,0.0695,0.0556,0.0421,0.0355,0.0408,0.0379,0.0205,0.0201,0.0205,0.0202,0.0199,0.0197,0.0195,0,0.0306,0.0348,0.0436,0.05,0.0535,0.064,0.073,0.0806,0.0915,0.1055,0.114,0.1124,0.111,0.0886,0.0663,0.0419,0.0379,0.029,0.0223,0.022,0.0189,0.0188,0.0188,0.0294,0.0293,0.0292,0.0292,0,0.036,0.0395,0.0453,0.0568,0.0669,0.0789,0.0918,0.1009,0.1129,0.1201,0.1288,0.1276,0.1122,0.0897,0.0585,0.0427,0.032,0.0261,0.0294,0.0306,0.0295,0.0266,0.0266,0.0285,0.0286,0.0287,0.0287,0.0287,0.0399,0.0446,0.0525,0.0628,0.0779,0.0914,0.0968,0.1134,0.1243,0.1355,0.1348,0.1295,0.1134,0.0685,0.0465,0.0241,0.0245,0.0143,0.015,0.0156,0.0137,0.0119,0.0074,0.0073,0.0073,0.0072,0.0072,0,0.0413,0.0459,0.058,0.0691,0.0827,0.0923,0.1079,0.1103,0.1208,0.1362,0.1362,0.1066,0.0876,0.0662,0.035,0.0143,0.0168,0.0044,0.0146,0.0154,0.0161,0.0144,0.0082,0.0081,0.008,0.0079,0,0,0.0423,0.0475,0.0515,0.0679,0.0798,0.0938,0.1,0.1075,0.1154,0.1198,0.1195,0.1161,0.0931,0.0656,0.0428,0.0268,0.0245,0.0219,0.0242,0.0402,0.041,0.0256,0.0244,0,0,0,0,0]}],[{"header":{"parameterUnit":"m.s-1","parameterCategory":2,"la1":30.2991,"la2":30.254,"lo1":-89.0895,"lo2":-89.0444,"dy":0.0017,"dx":0.0017,"nx":28,"ny":28,"refTime":"2024-04-25T09:00:00:Z","depth":"4","parameterNumber":2,"parameterNumberName":"U-component_of_CURRENTS"},"data":[0,0,0,0,0,0,0,0,0,0,0,0,0,0,0,0,0,0,0,0,0,0,0,0,0,0,0,0,0,0,0,0,0,0,0,0,0,0,0,0,0,0,0,0,0,0,0,0,0,0,0,0,0,0,0,0,0,0,0.1282,0.1283,0,0.1321,0.1321,0.1322,0.1363,0.1364,0.1364,0.1365,0.1408,0.1409,0.1409,0,0,0,0,0,0,0,0,0,0,0,0,0,0.126,0.126,0.1282,0.1283,0.1283,0.1321,0.1321,0.1322,0.1363,0.1364,0.1364,0.1365,0.1408,0.1408,0.1409,0,0,0,0,0,0,0,0,0,0,0,0,0,0.1281,0.126,0.1282,0.1308,0.1311,0.1321,0.1321,0.1322,0.1363,0.1364,0.1365,0.1365,0.1407,0.1408,0.1409,0.1398,0,0,0.1412,0.1413,0,0,0,0,0,0,0,0,0.128,0.1282,0.1304,0.1306,0.1309,0.1338,0.1329,0.1348,0.1363,0.1344,0.1365,0.1366,0.1384,0.1387,0.1393,0.14,0.1402,0.1412,0.1413,0.1413,0.1413,0,0,0,0,0,0,0,0.1278,0.1281,0.1298,0.1304,0.1308,0.1323,0.1327,0.1333,0.1359,0.1345,0.1348,0.1352,0.1386,0.1392,0.1394,0.1403,0.1412,0.1413,0.1414,0.1414,0.1496,0.1497,0,0,0,0,0,0,0.1271,0.1279,0.1297,0.1299,0.1296,0.1322,0.1327,0.1328,0.1359,0.1364,0.1351,0.1353,0.139,0.1393,0.1396,0.1456,0.1413,0.1414,0.1415,0.1494,0.1496,0.1498,0,0,0,0,0,0,0.127,0.1272,0.1295,0.129,0.1294,0.1322,0.1323,0.1328,0.1363,0.1363,0.1369,0.1383,0.1391,0.1394,0.1434,0.1456,0.1415,0.1415,0.1492,0.1495,0.1497,0.1531,0,0,0,0,0,0,0.127,0.1272,0.1286,0.1289,0.1294,0.1323,0.1322,0.1329,0.1362,0.1366,0.1392,0.1395,0.1391,0.1432,0.1435,0.1456,0.1416,0.149,0.1493,0.1496,0.1528,0.1535,0.154,0,0,0,0,0,0.1269,0.1278,0.1286,0.129,0.1307,0.1324,0.1329,0.1351,0.1363,0.1385,0.1406,0.1396,0.1453,0.1434,0.1437,0.1459,0.1489,0.1492,0.1496,0.1526,0.1533,0.154,0,0,0,0,0,0,0.1279,0.1283,0.1293,0.1305,0.1325,0.1332,0.1356,0.1367,0.14,0.1415,0.1414,0.1419,0.1462,0.146,0.1439,0.1494,0.147,0.1474,0.1492,0.1499,0.1505,0.1491,0.1417,0,0,0,0,0,0.1285,0.1297,0.1305,0.1321,0.1332,0.135,0.1365,0.1381,0.1402,0.1419,0.1432,0.1453,0.1473,0.1487,0.1502,0.153,0.1539,0.1548,0.1554,0.1559,0.1551,0.1613,0.1624,0.151,0.151,0.151,0,0,0.1294,0.13,0.1308,0.1326,0.1344,0.1356,0.1363,0.1396,0.141,0.1416,0.1453,0.1476,0.1486,0.152,0.1539,0.1525,0.1596,0.1564,0.1568,0.1557,0.1618,0.1629,0.1639,0.1512,0.1512,0.1511,0,0,0.1308,0.1325,0.1338,0.1353,0.1383,0.1387,0.1402,0.1425,0.1447,0.1481,0.1492,0.1528,0.1556,0.1566,0.1573,0.1621,0.1627,0.1638,0.1653,0.1714,0.1723,0.1732,0.1749,0.1759,0.1639,0.1639,0.1639,0,0.1323,0.133,0.1348,0.1363,0.1372,0.1401,0.1413,0.1435,0.147,0.1488,0.1502,0.1564,0.1571,0.1607,0.1624,0.1632,0.1662,0.1622,0.1721,0.173,0.1738,0.1754,0.1764,0.1641,0.1641,0.1641,0.164,0,0.1334,0.1351,0.1363,0.1382,0.1398,0.1419,0.1438,0.1474,0.1502,0.1517,0.1577,0.1603,0.1638,0.1652,0.1649,0.1712,0.1712,0.1723,0.1699,0.1751,0.1765,0.1775,0.1644,0.1643,0.1643,0.1642,0,0,0.1333,0.1363,0.137,0.1381,0.1409,0.142,0.1454,0.1482,0.1517,0.1562,0.1604,0.1642,0.1673,0.1683,0.1702,0.1747,0.1821,0.1763,0.1765,0.1772,0.1943,0.1794,0.179,0.1868,0.187,0.1872,0.1925,0,0.1338,0.1353,0.137,0.1393,0.1396,0.1434,0.1459,0.1496,0.1538,0.159,0.1631,0.1686,0.168,0.1724,0.1764,0.1826,0.1852,0.1804,0.1897,0.1898,0.1754,0.1798,0.1879,0.1932,0.1935,0.1936,0.1937,0,0.1333,0.1341,0.1356,0.1388,0.1399,0.1428,0.148,0.1511,0.1582,0.1625,0.1686,0.1724,0.1796,0.1791,0.1899,0.1881,0.1903,0.1934,0.1938,0.179,0.1768,0.1873,0.1956,0.1954,0.1953,0.1952,0.1951,0,0.1297,0.133,0.1338,0.1349,0.1392,0.143,0.1466,0.153,0.1571,0.1667,0.1722,0.1796,0.1868,0.1924,0.1969,0.1964,0.2075,0.2077,0.1946,0.1935,0.2038,0.2028,0.2127,0.2127,0.2127,0.2127,0.2127,0,0.1269,0.1284,0.1335,0.1344,0.1379,0.142,0.1478,0.1538,0.1622,0.1666,0.1751,0.1792,0.1917,0.1979,0.1999,0.1996,0.2102,0.1943,0.1943,0.205,0.2041,0.2044,0.2034,0.2129,0.2128,0.2128,0.2127,0,0.1223,0.1255,0.1282,0.1343,0.1366,0.1402,0.149,0.152,0.163,0.1698,0.174,0.1841,0.192,0.1995,0.2089,0.2029,0.2046,0.2004,0.2092,0.2098,0.1854,0.1846,0.1877,0.1872,0.1868,0.1865,0.1862,0,0.1194,0.1198,0.1277,0.1293,0.1332,0.1385,0.1408,0.1516,0.1542,0.169,0.1701,0.1825,0.1871,0.1879,0.1962,0.199,0.1959,0.1946,0.1902,0.1833,0.1832,0.1829,0.1826,0.1856,0.1855,0.1854,0.1853,0,0.1136,0.1186,0.1211,0.1235,0.1275,0.13,0.135,0.1366,0.1475,0.1603,0.1626,0.1663,0.1732,0.1778,0.1815,0.1823,0.1955,0.1904,0.1912,0.187,0.1808,0.181,0.1812,0.1839,0.1841,0.1842,0.1843,0,0.1106,0.1109,0.1141,0.1155,0.1192,0.118,0.123,0.1245,0.1297,0.1464,0.1456,0.1579,0.1695,0.1688,0.1712,0.1725,0.1701,0.1643,0.1664,0.1681,0.1592,0.1482,0.1411,0,0,0,0,0,0.1054,0.1029,0.1035,0.1036,0.1066,0.1081,0.1154,0.1201,0.1318,0.1297,0.1378,0.1423,0.1472,0.1518,0.1496,0.1627,0.1709,0.1592,0.1653,0.1762,0.1778,0.1692,0,0,0,0,0,0,0.1015,0.1017,0.0998,0.0923,0.0892,0.0904,0.0949,0.1036,0.1022,0.1163,0.1192,0.1316,0.138,0.1468,0.1458,0.1479,0.1484,0.1675,0.1671,0.1753,0.1767,0.178,0.1697,0,0,0,0,0]},{"header":{"parameterUnit":"m.s-1","parameterCategory":2,"la1":30.2991,"la2":30.254,"lo1":-89.0895,"lo2":-89.0444,"dy":0.0017,"dx":0.0017,"nx":28,"ny":28,"refTime":"2024-04-25T09:00:00:Z","depth":"4","parameterNumber":3,"parameterNumberName":"V-component_of_CURRENTS"},"data":[0,0,0,0,0,0,0,0,0,0,0,0,0,0,0,0,0,0,0,0,0,0,0,0,0,0,0,0,0,0,0,0,0,0,0,0,0,0,0,0,0,0,0,0,0,0,0,0,0,0,0,0,0,0,0,0,0,0,-0.0007,-0.0007,0,-0.0011,-0.0011,-0.0011,-0.002,-0.0021,-0.0021,-0.0021,-0.0034,-0.0034,-0.0034,0,0,0,0,0,0,0,0,0,0,0,0,0,-0.0004,-0.0004,-0.0007,-0.0007,-0.0008,-0.0011,-0.0011,-0.0011,-0.002,-0.0021,-0.0021,-0.0021,-0.0034,-0.0034,-0.0034,0,0,0,0,0,0,0,0,0,0,0,0,0,-0.0005,-0.0004,-0.0007,-0.0013,-0.0014,-0.0011,-0.0011,-0.0011,-0.002,-0.0021,-0.0021,-0.0022,-0.0034,-0.0034,-0.0034,-0.0026,0,0,-0.0034,-0.0034,0,0,0,0,0,0,0,0,-0.0005,-0.0005,-0.0012,-0.0013,-0.0014,-0.0017,-0.0014,-0.0017,-0.002,-0.0017,-0.0021,-0.0022,-0.0029,-0.0029,-0.0028,-0.0027,-0.0027,-0.0034,-0.0034,-0.0034,-0.0034,0,0,0,0,0,0,0,-0.0005,-0.0005,-0.0008,-0.0012,-0.0013,-0.0014,-0.0015,-0.0015,-0.002,-0.0017,-0.0018,-0.002,-0.0029,-0.0028,-0.0028,-0.0027,-0.0034,-0.0034,-0.0034,-0.0034,-0.0014,-0.0013,0,0,0,0,0,0,-0.0006,-0.0005,-0.0008,-0.0008,-0.0011,-0.0014,-0.0015,-0.0014,-0.002,-0.0021,-0.002,-0.002,-0.0027,-0.0028,-0.0029,-0.0007,-0.0034,-0.0034,-0.0034,-0.0015,-0.0014,-0.0013,0,0,0,0,0,0,-0.0006,-0.0006,-0.0008,-0.0008,-0.0008,-0.0014,-0.0013,-0.0014,-0.0013,-0.0022,-0.0023,-0.0018,-0.0028,-0.0029,-0.0024,-0.0008,-0.0034,-0.0034,-0.0015,-0.0014,-0.0014,0.0028,0,0,0,0,0,0,-0.0006,-0.0006,-0.0005,-0.0008,-0.0008,-0.0003,-0.0013,-0.0014,-0.0014,-0.0015,-0.0021,-0.0022,-0.0028,-0.0024,-0.0024,-0.0009,-0.0035,-0.0016,-0.0015,-0.0014,0.0026,0.003,0.0034,0,0,0,0,0,-0.0006,-0.0003,-0.0005,-0.0005,-0.0007,-0.0002,-0.0002,-0.0008,-0.0014,-0.0009,-0.0012,-0.0022,-0.0017,-0.0023,-0.0024,-0.0008,-0.0017,-0.0015,-0.0014,0.0024,0.0029,0.0034,0,0,0,0,0,0,-0.0002,-0.0004,-0.0006,-0.0004,-0.0002,-0.0004,-0.0002,-0.0005,-0.0004,-0.0005,-0.0014,-0.0016,-0.0005,-0.0013,-0.002,0.0,-0.0018,-0.0017,0.0011,0.0015,0.0019,0.0023,-0.0035,0,0,0,0,0,0.0,0.0003,0.0001,0.0004,0.0005,0.0003,0.0003,0.0001,0.0001,0.0001,-0.0003,-0.0005,0.0001,0.0002,0.0003,0.0014,-0.001,0.0023,0.0027,0.003,0.0033,0.0014,0.0017,-0.0009,-0.0009,-0.0009,0,0,0.0002,0.0002,0.0003,0.0005,0.0006,0.0018,0.0003,0.0007,0.0019,-0.0,0.0013,0.0008,0.0006,0.0021,0.0025,0.0015,0.0023,0.0032,0.0035,0.0036,0.0016,0.0018,0.0021,-0.0008,-0.0008,-0.0008,0,0,0.0012,0.0009,0.0017,0.0022,0.0025,0.0027,0.003,0.003,0.0032,0.0042,0.0035,0.0039,0.0043,0.0048,0.0052,0.0077,0.0045,0.0076,0.0101,0.0083,0.0085,0.0087,0.005,0.0047,0.0079,0.0079,0.0079,0,0.0015,0.0026,0.002,0.0032,0.0041,0.0034,0.0051,0.0056,0.0058,0.0063,0.0051,0.0062,0.0059,0.0083,0.0092,0.0088,0.0062,0.0084,0.0088,0.0089,0.009,0.0052,0.0049,0.0081,0.0081,0.0081,0.008,0,0.0034,0.0044,0.005,0.0066,0.0075,0.0088,0.0095,0.0105,0.0104,0.0104,0.0118,0.0112,0.0118,0.012,0.0115,0.0126,0.01,0.0095,0.0076,0.0095,0.0053,0.005,0.0084,0.0083,0.0083,0.0082,0,0,0.0038,0.0059,0.0063,0.0079,0.0096,0.0107,0.0133,0.0152,0.0166,0.0164,0.0178,0.0189,0.0174,0.0177,0.017,0.0157,0.0137,0.0129,0.0127,0.0091,0.0079,0.0074,0.0068,0.0129,0.0129,0.0129,0.0044,0,0.0057,0.0086,0.0094,0.013,0.0148,0.0159,0.0185,0.02,0.0203,0.0212,0.0207,0.0215,0.02,0.0202,0.0189,0.0156,0.013,0.0159,0.0066,0.0063,0.0056,0.0066,0.0128,0.0041,0.004,0.0039,0.0039,0,0.0075,0.0094,0.0129,0.0167,0.0176,0.02,0.0238,0.0258,0.0271,0.0271,0.0272,0.0257,0.0254,0.0228,0.0176,0.0193,0.0138,0.0102,0.0098,0.0077,0.0052,0.002,0.0031,0.0032,0.0032,0.0033,0.0033,0,0.0084,0.012,0.0151,0.0164,0.0203,0.0228,0.0253,0.0276,0.0297,0.0304,0.0309,0.0294,0.0286,0.023,0.0158,0.0165,0.0078,0.0077,0.0014,0.0012,0.0022,0.0022,0.0022,0.0023,0.0023,0.0023,0.0023,0,0.0103,0.0127,0.0159,0.0178,0.022,0.0243,0.0284,0.0306,0.0331,0.0356,0.0337,0.0342,0.0284,0.0229,0.0159,0.0074,0.0075,0.0017,-0.0004,0.004,0.0042,0.0018,0.0019,0.002,0.0021,0.0021,0.0022,0,0.0102,0.0126,0.0162,0.0207,0.0226,0.0255,0.031,0.0335,0.0359,0.0389,0.0394,0.0373,0.0316,0.0236,0.0137,0.0079,-0.0005,-0.0046,-0.001,-0.0028,-0.0062,-0.0059,-0.0109,-0.0109,-0.011,-0.011,-0.0111,0,0.0104,0.0121,0.0174,0.0199,0.0222,0.0267,0.0301,0.0345,0.0375,0.0407,0.0422,0.038,0.0353,0.0212,0.0122,-0.0014,-0.0035,-0.0097,-0.0058,-0.0057,-0.0073,-0.0068,-0.0064,-0.0112,-0.0112,-0.0112,-0.0112,0,0.0101,0.0118,0.0147,0.0199,0.0241,0.029,0.0344,0.0371,0.0424,0.0438,0.0452,0.0394,0.0322,0.0222,0.0106,0.0008,-0.0056,-0.0103,-0.0102,-0.0066,-0.0062,-0.0076,-0.0071,-0.0115,-0.0114,-0.0114,-0.0114,0,0.0096,0.0108,0.0149,0.02,0.0249,0.0309,0.034,0.0388,0.0427,0.0473,0.0466,0.0406,0.0369,0.023,0.0125,0.0033,0.0019,-0.0017,-0.0021,-0.002,0.0038,0.0058,0.0025,0,0,0,0,0,0.0091,0.011,0.0148,0.0215,0.0264,0.0307,0.0368,0.0397,0.0444,0.0463,0.0478,0.0419,0.0297,0.0237,0.0148,0.0102,-0.0014,-0.0009,-0.0061,-0.0127,-0.0124,-0.0071,0,0,0,0,0,0,0.009,0.0118,0.0144,0.022,0.0269,0.0336,0.0382,0.0419,0.0435,0.0463,0.0402,0.0385,0.0263,0.0356,0.0146,0.0117,0.0067,-0.0063,-0.0066,-0.0128,-0.0126,-0.0124,-0.0068,0,0,0,0,0]}]]